IBE992 EDDH-LEMD

Flight info

Callsign IBE992
Flight time N/A
Altitude 36000
Route WSN5C WSN N125 SILQI N872 PAM/N0441F350 N872 MEDIL DCT KOVIN DCT DUCRA UM728 RESMI UN857 DISAK DCT ARKIP DCT ARNAV DCT LMG DCT UVELI DCT OSMOB DCT ARVID T424 PPN N10 BANEV BANEV3B
Aircraft A320/M-VGDW/C

Departure

Time 2026-04-21 16:14
Airport Hamburg Helmut Schmidt Airport (EDDH)

Arrival

Time N/A
Airport Adolfo Suárez Madrid–Barajas Airport (LEMD)
Time Latitude Longitude Altitude Speed Heading
2026-04-21 15:52 53.63218 9.99957 46 ft 0 kts 322°
2026-04-21 16:03 53.63208 9.99971 50 ft 4 kts 322°
2026-04-21 16:03 53.63190 9.99993 47 ft 3 kts 321°
2026-04-21 16:04 53.63176 10.00019 48 ft 4 kts 256°
2026-04-21 16:04 53.63188 10.00051 46 ft 4 kts 232°
2026-04-21 16:04 53.63192 10.00059 47 ft 0 kts 232°
2026-04-21 16:07 53.63187 10.00049 50 ft 2 kts 231°
2026-04-21 16:08 53.63169 10.00025 50 ft 1 kts 170°
2026-04-21 16:08 53.63161 10.00025 50 ft 3 kts 180°
2026-04-21 16:08 53.63152 9.99997 48 ft 5 kts 244°
2026-04-21 16:09 53.63130 9.99923 49 ft 9 kts 242°
2026-04-21 16:09 53.63156 9.99820 50 ft 13 kts 332°
2026-04-21 16:09 53.63232 9.99715 50 ft 16 kts 276°
2026-04-21 16:09 53.63156 9.99538 49 ft 21 kts 231°
2026-04-21 16:10 53.63066 9.99321 50 ft 23 kts 235°
2026-04-21 16:10 53.62973 9.99123 50 ft 21 kts 230°
2026-04-21 16:10 53.62883 9.98941 50 ft 19 kts 230°
2026-04-21 16:10 53.62801 9.98777 50 ft 17 kts 230°
2026-04-21 16:11 53.62728 9.98630 50 ft 15 kts 230°
2026-04-21 16:11 53.62664 9.98500 50 ft 14 kts 230°
2026-04-21 16:11 53.62608 9.98386 50 ft 12 kts 231°
2026-04-21 16:11 53.62551 9.98268 50 ft 15 kts 231°
2026-04-21 16:12 53.62497 9.98179 50 ft 18 kts 222°
2026-04-21 16:12 53.62359 9.97947 50 ft 23 kts 230°
2026-04-21 16:12 53.62252 9.97732 50 ft 16 kts 230°
2026-04-21 16:12 53.62188 9.97601 50 ft 13 kts 234°
2026-04-21 16:13 53.62186 9.97461 50 ft 12 kts 291°
2026-04-21 16:13 53.62243 9.97372 49 ft 13 kts 334°
2026-04-21 16:13 53.62330 9.97395 48 ft 14 kts 49°
2026-04-21 16:13 53.62423 9.97583 47 ft 43 kts 50°
2026-04-21 16:14 53.62793 9.98325 50 ft 119 kts 50°
2026-04-21 16:14 53.63432 9.99616 367 ft 149 kts 50°
2026-04-21 16:14 53.64102 10.01010 1059 ft 160 kts 51°
2026-04-21 16:14 53.64853 10.02543 1743 ft 174 kts 50°
2026-04-21 16:15 53.65644 10.04147 2557 ft 182 kts 50°
2026-04-21 16:15 53.66486 10.05856 3329 ft 197 kts 52°
2026-04-21 16:15 53.67395 10.07711 4132 ft 214 kts 52°
2026-04-21 16:15 53.68417 10.09693 4953 ft 235 kts 42°
2026-04-21 16:16 53.69966 10.10841 5731 ft 262 kts
2026-04-21 16:16 53.71847 10.10240 6428 ft 295 kts 335°
2026-04-21 16:16 53.73451 10.07842 7107 ft 327 kts 308°
2026-04-21 16:16 53.74580 10.04329 7764 ft 352 kts 295°
2026-04-21 16:17 53.75200 10.00254 8503 ft 369 kts 273°
2026-04-21 16:17 53.74790 9.95927 9303 ft 379 kts 251°
2026-04-21 16:17 53.73706 9.91828 10118 ft 386 kts 244°
2026-04-21 16:17 53.72590 9.87664 10866 ft 392 kts 247°
2026-04-21 16:18 53.71543 9.83375 11623 ft 398 kts 248°
2026-04-21 16:18 53.70514 9.79007 12399 ft 404 kts 248°
2026-04-21 16:18 53.69458 9.74561 13182 ft 411 kts 248°
2026-04-21 16:18 53.68364 9.70066 14016 ft 418 kts 247°
2026-04-21 16:19 53.67303 9.65829 14231 ft 423 kts 247°
2026-04-21 16:19 53.66127 9.61222 15515 ft 420 kts 247°
2026-04-21 16:19 53.64951 9.56998 16439 ft 418 kts 238°
2026-04-21 16:19 53.63261 9.52941 17248 ft 419 kts 231°
2026-04-21 16:20 53.61500 9.49014 18077 ft 421 kts 231°
2026-04-21 16:20 53.59743 9.45057 18872 ft 422 kts 232°
2026-04-21 16:20 53.58025 9.41132 19592 ft 422 kts 232°
2026-04-21 16:20 53.56292 9.37141 20330 ft 422 kts 232°
2026-04-21 16:21 53.54566 9.33142 21095 ft 422 kts 232°
2026-04-21 16:21 53.52851 9.29152 21886 ft 420 kts 232°
2026-04-21 16:21 53.51145 9.25181 22698 ft 418 kts 231°
2026-04-21 16:21 53.49443 9.21231 23533 ft 416 kts 231°
2026-04-21 16:22 53.48322 9.18636 24062 ft 414 kts 231°
2026-04-21 16:22 53.46076 9.13441 25022 ft 408 kts 231°
2026-04-21 16:22 53.44421 9.09625 25758 ft 401 kts 230°
2026-04-21 16:22 53.42788 9.05879 26516 ft 393 kts 230°
2026-04-21 16:23 53.41194 9.02232 27288 ft 383 kts 230°
2026-04-21 16:23 53.39637 8.98668 27923 ft 378 kts 230°
2026-04-21 16:23 53.38604 8.96312 28147 ft 380 kts 230°
2026-04-21 16:23 53.36502 8.91523 28579 ft 383 kts 231°
2026-04-21 16:24 53.35527 8.89045 28781 ft 386 kts 236°
2026-04-21 16:24 53.34254 8.85061 29075 ft 391 kts 243°
2026-04-21 16:24 53.33238 8.80820 29369 ft 394 kts 248°
2026-04-21 16:24 53.32299 8.76495 29661 ft 396 kts 248°
2026-04-21 16:25 53.31346 8.72167 29966 ft 397 kts 247°
2026-04-21 16:25 53.30381 8.67825 30276 ft 399 kts 247°
2026-04-21 16:25 53.29412 8.63473 30538 ft 401 kts 247°
2026-04-21 16:25 53.28444 8.59087 30794 ft 402 kts 247°
2026-04-21 16:26 53.27477 8.54694 31055 ft 403 kts 248°
2026-04-21 16:26 53.26509 8.50288 31326 ft 404 kts 248°
2026-04-21 16:26 53.25581 8.45845 31590 ft 406 kts 250°
2026-04-21 16:26 53.24720 8.41351 31851 ft 407 kts 251°
2026-04-21 16:27 53.23894 8.36818 32118 ft 408 kts 251°
2026-04-21 16:27 53.23078 8.32273 32384 ft 410 kts 252°
2026-04-21 16:27 53.22254 8.27714 32647 ft 411 kts 251°
2026-04-21 16:27 53.21413 8.23160 32903 ft 412 kts 251°
2026-04-21 16:28 53.20550 8.18598 33160 ft 413 kts 251°
2026-04-21 16:28 53.19677 8.14039 33440 ft 413 kts 251°
2026-04-21 16:28 53.18797 8.09470 33683 ft 414 kts 251°
2026-04-21 16:28 53.17922 8.04889 33910 ft 415 kts 251°
2026-04-21 16:29 53.17051 8.00293 34124 ft 416 kts 251°
2026-04-21 16:29 53.16180 7.95683 34331 ft 417 kts 251°
2026-04-21 16:29 53.15310 7.91072 34516 ft 418 kts 251°
2026-04-21 16:29 53.14434 7.86442 34670 ft 419 kts 251°
2026-04-21 16:30 53.13551 7.81806 34834 ft 420 kts 251°
2026-04-21 16:30 53.12666 7.77170 34990 ft 421 kts 251°
2026-04-21 16:30 53.11775 7.72522 35149 ft 422 kts 251°
2026-04-21 16:30 53.10880 7.67862 35300 ft 422 kts 251°
2026-04-21 16:31 53.09997 7.63264 35443 ft 423 kts 251°
2026-04-21 16:31 53.09099 7.58607 35607 ft 423 kts 251°
2026-04-21 16:31 53.08197 7.53945 35745 ft 424 kts 251°
2026-04-21 16:31 53.07292 7.49274 35889 ft 425 kts 251°
2026-04-21 16:32 53.06381 7.44599 36024 ft 425 kts 251°
2026-04-21 16:32 53.05465 7.39922 36152 ft 426 kts 251°
2026-04-21 16:32 53.04544 7.35242 36296 ft 426 kts 251°
2026-04-21 16:33 53.02684 7.25804 36344 ft 434 kts 252°
2026-04-21 16:33 53.00786 7.16188 36335 ft 442 kts 252°
2026-04-21 16:34 52.98806 7.06417 36342 ft 450 kts 251°
2026-04-21 16:34 52.96770 6.96507 36347 ft 457 kts 251°
2026-04-21 16:35 52.94697 6.86449 36346 ft 464 kts 251°
2026-04-21 16:35 52.92583 6.76244 36348 ft 471 kts 251°
2026-04-21 16:36 52.90443 6.65942 36347 ft 475 kts 251°
2026-04-21 16:36 52.88283 6.55552 36327 ft 479 kts 251°
2026-04-21 16:37 52.86097 6.45108 36330 ft 481 kts 251°
2026-04-21 16:37 52.83887 6.34622 36334 ft 484 kts 251°
2026-04-21 16:38 52.81665 6.24111 36336 ft 485 kts 251°
2026-04-21 16:38 52.79432 6.13593 36328 ft 485 kts 251°
2026-04-21 16:39 52.77197 6.03156 36321 ft 485 kts 252°
2026-04-21 16:39 52.74946 5.92656 36336 ft 485 kts 252°
2026-04-21 16:40 52.72287 5.82428 36342 ft 487 kts 239°
2026-04-21 16:40 52.68088 5.73672 36337 ft 488 kts 229°
2026-04-21 16:41 52.63741 5.65509 36327 ft 489 kts 229°